Weather History for Wiscasset, ME

Change the Weather History Date:

Saturday, February 23, 2013

  Actual Average Record
Temperature  
Mean Temperature 30 °F -  
Max Temperature 37 °F 33 °F 46 °F (2012)
Min Temperature 24 °F 15 °F 3 °F (1999)
Degree Days  
Heating Degree Days 34    
Moisture  
Dew Point 28 °F    
Average Humidity 83    
Maximum Humidity 93    
Minimum Humidity 68    
Precipitation  
Precipitation 0.03 in - - ()
Sea Level Pressure  
Sea Level Pressure 30.18 in    
Wind  
Wind Speed 3 mph (ESE)    
Max Wind Speed 9 mph    
Max Gust Speed -    
Visibility 7 miles    
Events Snow    
Averages and records for this station are not official NWS values.
T = Trace of Precipitation, MM = Missing Value Source: NWS Daily Summary

Daily Weather History Graph

Daily Weather History Graph

Search for Another Location

Airport:

Trip Planner

Search our weather history database for the weather conditions in past years. The results will help you decide how hot, cold, wet, or windy it might be!

Date:

Astronomy

Feb. 23, 2013 Rise Set
Actual Time 6:25 AM EST 5:19 PM EST
Civil Twilight 5:56 AM EST 5:48 PM EST
Nautical Twilight 5:22 AM EST 6:22 PM EST
Astronomical Twilight 4:49 AM EST 6:55 PM EST
Moon 3:24 PM EST (2/23) 4:48 AM EST (2/23)
Length of Visible Light 11h 52m
Length of Day
10h 54m
Waxing Gibbous, 95% of the Moon is Illuminated
Feb 23
Waxing Gibbous
Feb 25
Full
Mar 4
Last Quarter
Mar 11
New
Mar 19
First Quarter

Hourly Weather History & Observations

Time (EST) Temp. Windchill Dew Point Humidity Pressure Visibility Wind Dir Wind Speed Gust Speed Precip Events Conditions
12:53 AM 28.0 °F - 19.0 °F 69% 30.37 in 10.0 mi Calm Calm - N/A   Clear
1:53 AM 24.1 °F - 19.0 °F 81% 30.35 in 10.0 mi Calm Calm - N/A   Clear
2:53 AM 25.0 °F - 19.0 °F 78% 30.33 in 10.0 mi Calm Calm - N/A   Clear
3:53 AM 24.1 °F - 19.9 °F 84% 30.32 in 10.0 mi Calm Calm - N/A   Overcast
4:53 AM 27.0 °F - 19.9 °F 75% 30.32 in 10.0 mi Calm Calm - N/A   Overcast
5:53 AM 27.0 °F - 19.9 °F 75% 30.31 in 10.0 mi Calm Calm - N/A   Overcast
6:53 AM 28.0 °F - 21.0 °F 75% 30.31 in 10.0 mi Calm Calm - N/A   Overcast
7:53 AM 28.9 °F - 21.9 °F 75% 30.29 in 10.0 mi Calm Calm - N/A   Overcast
8:53 AM 30.9 °F - 25.0 °F 79% 30.28 in 10.0 mi Calm Calm - N/A   Overcast
9:53 AM 36.0 °F 32.1 °F 28.0 °F 73% 30.26 in 10.0 mi ENE 4.6 mph - N/A   Overcast
10:50 AM 37.4 °F 33.8 °F 28.4 °F 70% 30.24 in 10.0 mi SE 4.6 mph - N/A   Overcast
10:53 AM 37.9 °F 32.7 °F 28.0 °F 68% 30.24 in 10.0 mi SSE 6.9 mph - N/A   Overcast
11:35 AM 35.6 °F 28.6 °F 30.2 °F 81% 30.24 in 4.0 mi SE 9.2 mph - 0.00 in Snow Light Snow
11:53 AM 36.0 °F 31.1 °F 30.0 °F 79% 30.24 in 9.0 mi Variable 5.8 mph - 0.00 in   Overcast
12:53 PM 37.0 °F 33.3 °F 28.9 °F 73% 30.21 in 10.0 mi East 4.6 mph - N/A   Overcast
1:53 PM 35.1 °F 30.1 °F 30.9 °F 85% 30.19 in 9.0 mi Variable 5.8 mph - 0.00 in   Overcast
1:59 PM 35.6 °F 29.9 °F 30.2 °F 81% 30.19 in 5.0 mi ESE 6.9 mph - 0.00 in Snow Light Snow
2:05 PM 33.8 °F 29.6 °F 30.2 °F 87% 30.20 in 2.5 mi SE 4.6 mph - 0.00 in Snow Light Snow
2:14 PM 33.8 °F - 30.2 °F 87% 30.20 in 1.5 mi Calm Calm - 0.01 in Snow Light Snow
2:23 PM 33.8 °F 30.8 °F 30.2 °F 87% 30.20 in 1.0 mi ESE 3.5 mph - 0.01 in Snow Light Snow
2:34 PM 33.8 °F 29.6 °F 30.2 °F 87% 30.19 in 2.0 mi ESE 4.6 mph - 0.02 in Snow Light Snow
2:46 PM 33.8 °F 29.6 °F 30.2 °F 87% 30.19 in 4.0 mi Variable 4.6 mph - 0.02 in Snow Light Snow
2:53 PM 34.0 °F 28.8 °F 30.9 °F 89% 30.19 in 4.0 mi East 5.8 mph - 0.02 in Snow Light Snow
3:03 PM 33.8 °F 29.6 °F 30.2 °F 87% 30.18 in 2.5 mi SE 4.6 mph - 0.00 in Snow Light Snow
3:14 PM 33.8 °F 29.6 °F 32.0 °F 93% 30.18 in 4.0 mi Variable 4.6 mph - 0.01 in Snow Light Snow
3:48 PM 35.6 °F 30.7 °F 30.2 °F 81% 30.15 in 10.0 mi ESE 5.8 mph - 0.01 in   Overcast
3:53 PM 35.1 °F 31.0 °F 32.0 °F 89% 30.16 in 10.0 mi Variable 4.6 mph - 0.01 in   Overcast
4:20 PM 35.6 °F 30.7 °F 30.2 °F 81% 30.16 in 10.0 mi Variable 5.8 mph - N/A   Overcast
4:53 PM 35.1 °F 30.1 °F 30.0 °F 82% 30.16 in 10.0 mi SE 5.8 mph - N/A   Overcast
5:53 PM 34.0 °F 28.0 °F 28.9 °F 82% 30.14 in 2.5 mi SE 6.9 mph - 0.00 in Snow Light Snow
6:07 PM 33.8 °F 27.7 °F 30.2 °F 87% 30.14 in 1.5 mi SE 6.9 mph - 0.00 in Snow Light Snow
6:15 PM 33.8 °F 29.6 °F 30.2 °F 87% 30.14 in 1.2 mi Variable 4.6 mph - 0.00 in Snow Light Snow
6:22 PM 33.8 °F 27.7 °F 30.2 °F 87% 30.13 in 1.0 mi SE 6.9 mph - 0.00 in Snow Light Snow
6:34 PM 33.8 °F 30.8 °F 30.2 °F 87% 30.14 in 1.2 mi Variable 3.5 mph - 0.00 in Snow Light Snow
6:53 PM 33.1 °F 26.9 °F 30.0 °F 89% 30.14 in 1.0 mi SE 6.9 mph - 0.00 in Snow Light Snow
7:04 PM 33.8 °F 29.6 °F 30.2 °F 87% 30.13 in 2.0 mi ESE 4.6 mph - 0.00 in Snow Light Snow
7:08 PM 33.8 °F 30.8 °F 30.2 °F 87% 30.13 in 3.0 mi SE 3.5 mph - 0.00 in Snow Light Snow
7:20 PM 33.8 °F 30.8 °F 30.2 °F 87% 30.13 in 5.0 mi SE 3.5 mph - 0.00 in Snow Light Snow
7:39 PM 33.8 °F 30.8 °F 28.4 °F 81% 30.13 in 10.0 mi SE 3.5 mph - 0.00 in   Overcast
7:53 PM 32.0 °F - 28.0 °F 85% 30.12 in 10.0 mi Calm Calm - 0.00 in   Mostly Cloudy
8:53 PM 32.0 °F 28.7 °F 27.0 °F 82% 30.11 in 10.0 mi East 3.5 mph - N/A   Overcast
9:09 PM 32.0 °F 28.7 °F 26.6 °F 80% 30.10 in 10.0 mi East 3.5 mph - N/A   Overcast
9:34 PM 32.0 °F 27.5 °F 28.4 °F 87% 30.08 in 10.0 mi East 4.6 mph - N/A   Overcast
9:50 PM 33.8 °F - 28.4 °F 81% 30.08 in 10.0 mi Calm Calm - N/A   Overcast
9:53 PM 32.0 °F 28.7 °F 28.0 °F 85% 30.08 in 10.0 mi ENE 3.5 mph - N/A   Overcast
10:21 PM 32.0 °F 28.7 °F 28.4 °F 87% 30.06 in 10.0 mi ENE 3.5 mph - N/A   Overcast
10:39 PM 33.8 °F 28.6 °F 28.4 °F 81% 30.05 in 10.0 mi East 5.8 mph - N/A   Overcast
10:53 PM 33.1 °F - 28.9 °F 85% 30.05 in 9.0 mi Calm Calm - N/A   Overcast
11:07 PM 32.0 °F 28.7 °F 28.4 °F 87% 30.05 in 10.0 mi Variable 3.5 mph - N/A   Overcast
11:53 PM 32.0 °F 27.5 °F 28.9 °F 88% 30.04 in 8.0 mi ENE 4.6 mph - 0.00 in   Overcast